Location: *
(43.0833°N, 13.0500°E)
Time: 06:17:28
(UTC+00:00)

Envisat - Pass Details

Date: 15 November 2019
Orbit: 764 x 766 km, 98.1° (Epoch: 07 December)

Event Time Altitude Azimuth Distance (km) Brightness Sun altitude
Rises 16:23:48 0° 144° (SE) 3,221 6.0 -7.5°
Reaches altitude 10° 16:26:13 10° 136° (SE) 2,299 5.2 -7.9°
Maximum altitude 16:30:53 39° 69° (ENE) 1,143 3.4 -8.8°
Drops below altitude 10° 16:35:35 10° 2° (N) 2,312 5.3 -9.6°
Sets 16:38:01 0° 355° (N) 3,243 6.1 -10.0°
